Tracking 33197 objects as of 18-Feb-2026
HD Live streaming from Space Station
objects crossing your sky now

METEOR 2-17 DEB

Track METEOR 2-17 DEB now!
10-day predictions


NORAD ID: 29300
Int'l Code: 1988-005P
Perigee: 855.7 km
Apogee: 908.7 km
Inclination: 82.5 °
Period: 102.5 minutes
Semi major axis: 7253 km
RCS: 0.0063 m2 (small)
Launch date: January 30, 1988
Source: Commonwealth of Independent States (former USSR) (CIS)
Launch site: PLESETSK MISSILE AND SPACE COMPLEX (PKMTR)

Note: This is SATELLITE DEBRIS
Your satellite tracking list
Your tracking list is empty




NASA's NSSDC Master Catalog

Two Line Element Set (TLE):
1 29300U 88005P   26047.15117474  .00002191  00000-0  13339-2 0  9998
2 29300  82.5488 359.2898 0036516 332.2309  27.6912 14.05437407   718
Source of the keplerian elements: AFSPC